Location: Cambridge (historical)
(38.6883°N, 119.0140°W)
Time: 16:42:03
(UTC+00:00)

Uosat 12 SS-18 rocket - Pass Details

Date: 29 October 2020
Orbit: 601 x 1384 km, 64.6° (Epoch: 23 November)

Event Time Altitude Azimuth Distance (km) Brightness Sun altitude
Rises 13:24:46 0° 212° (SSW) 3,220 7.5 -11.4°
Reaches altitude 10° 13:27:19 10° 213° (SSW) 2,198 6.6 -10.9°
Maximum altitude 13:32:11 83° 299° (WNW) 657 4.1 -10.0°
Drops below altitude 10° 13:36:34 10° 30° (NNE) 1,969 6.9 -9.1°
Sets 13:38:44 0° 31° (NNE) 2,857 7.8 -8.7°
